User: anonymous   Login
Location: Krasnoyarskiy Pitomnik
(51.1333°N, 71.6167°E)
Time: 02:40:23
(UTC+00:00)
Language:

Cosmos 2237 - Orbit

View from above orbital plane
View from above orbital plane
View from above satellite
View from above satellite

Ground track
Ground track

The orbit data is extracted from the following two-line orbital elements,

1 22565U 93016A   22026.55557455 -.00000214  00000-0 -89397-4 0  9991
2 22565  70.8356  97.1605 0004258 141.6299 218.5124 14.12458530487050
Epoch (UTC): 26 January 2022 13:20:01
Eccentricity: 0.0004258
inclination: 70.8356°
perigee height: 848 km
apogee height: 854 km
right ascension of ascending node: 97.1605°
argument of perigee: 141.6299°
revolutions per day: 14.12458530
mean anomaly at epoch: 218.5124°
orbit number at epoch: 48705

The dashed part of the orbit path shows where the satellite is in the earth's shadow,  

DLR